TimeEDT,TemperatureF,Dew PointF,Humidity,Sea Level PressureIn,VisibilityMPH,Wind Direction,Wind SpeedMPH,Gust SpeedMPH,PrecipitationIn,Events,Conditions,WindDirDegrees,DateUTC
2:55 AM,69.8,69.8,100,29.81,2.5,Calm,Calm,-,N/A,,Overcast,0,2012-10-19 06:55:00
3:15 AM,69.8,69.8,100,29.80,2.0,Calm,Calm,-,N/A,Rain,Light Rain,0,2012-10-19 07:15:00
3:35 AM,69.8,69.8,100,29.82,3.0,West,6.9,16.1,N/A,Rain-Thunderstorm,Heavy Thunderstorms and Rain,280,2012-10-19 07:35:00
3:55 AM,69.8,69.8,100,29.81,5.0,WSW,4.6,-,N/A,Rain-Thunderstorm,Light Thunderstorms and Rain,250,2012-10-19 07:55:00
4:15 AM,69.8,69.8,100,29.82,5.0,West,4.6,-,N/A,Rain-Thunderstorm,Rain,270,2012-10-19 08:15:00
4:55 AM,69.8,69.8,100,29.81,10.0,NW,3.5,-,N/A,,Overcast,310,2012-10-19 08:55:00
5:15 AM,69.8,69.8,100,29.82,10.0,NNW,3.5,-,N/A,,Overcast,330,2012-10-19 09:15:00
5:35 AM,68.0,68.0,100,29.82,10.0,NW,4.6,-,N/A,,Mostly Cloudy,320,2012-10-19 09:35:00
5:55 AM,68.0,68.0,100,29.83,10.0,WNW,3.5,-,N/A,,Mostly Cloudy,300,2012-10-19 09:55:00
6:15 AM,68.0,68.0,100,29.84,10.0,Calm,Calm,-,N/A,,Overcast,0,2012-10-19 10:15:00
6:35 AM,68.0,68.0,100,29.84,10.0,Calm,Calm,-,N/A,,Overcast,0,2012-10-19 10:35:00
6:55 AM,68.0,68.0,100,29.84,10.0,NW,3.5,-,N/A,,Overcast,320,2012-10-19 10:55:00
7:15 AM,68.0,68.0,100,29.85,10.0,NW,3.5,-,N/A,,Overcast,320,2012-10-19 11:15:00
7:35 AM,68.0,66.2,94,29.85,10.0,NNW,5.8,-,N/A,,Overcast,330,2012-10-19 11:35:00
7:55 AM,66.2,64.4,94,29.85,10.0,NNW,6.9,-,N/A,,Mostly Cloudy,330,2012-10-19 11:55:00
8:15 AM,64.4,62.6,94,29.86,10.0,NW,5.8,-,N/A,,Clear,320,2012-10-19 12:15:00
8:55 AM,68.0,62.6,83,29.87,10.0,NNW,5.8,-,N/A,,Clear,340,2012-10-19 12:55:00
9:15 AM,68.0,60.8,78,29.88,10.0,North,5.8,-,N/A,,Clear,360,2012-10-19 13:15:00
9:35 AM,69.8,59.0,68,29.89,10.0,North,6.9,-,N/A,,Clear,350,2012-10-19 13:35:00
9:55 AM,69.8,55.4,60,29.89,10.0,North,5.8,-,N/A,,Clear,10,2012-10-19 13:55:00
10:15 AM,69.8,51.8,53,29.90,10.0,North,9.2,-,N/A,,Clear,360,2012-10-19 14:15:00
10:35 AM,71.6,51.8,50,29.90,10.0,NNW,5.8,-,N/A,,Clear,340,2012-10-19 14:35:00
10:55 AM,71.6,51.8,50,29.90,10.0,North,6.9,-,N/A,,Clear,10,2012-10-19 14:55:00
11:15 AM,73.4,50.0,44,29.90,10.0,North,6.9,-,N/A,,Clear,10,2012-10-19 15:15:00
11:35 AM,71.6,48.2,43,29.90,10.0,North,8.1,-,N/A,,Clear,360,2012-10-19 15:35:00
11:55 AM,73.4,50.0,44,29.89,10.0,North,6.9,-,N/A,,Clear,10,2012-10-19 15:55:00
12:15 PM,75.2,48.2,38,29.89,10.0,North,5.8,-,N/A,,Clear,350,2012-10-19 16:15:00
12:35 PM,73.4,48.2,41,29.89,10.0,NNW,8.1,-,N/A,,Clear,340,2012-10-19 16:35:00
12:55 PM,77.0,50.0,39,29.89,10.0,NW,5.8,-,N/A,,Clear,310,2012-10-19 16:55:00
1:15 PM,77.0,50.0,39,29.87,10.0,NNE,4.6,-,N/A,,Clear,30,2012-10-19 17:15:00
1:35 PM,77.0,50.0,39,29.87,10.0,North,3.5,-,N/A,,Clear,360,2012-10-19 17:35:00
1:55 PM,77.0,50.0,39,29.86,10.0,NNW,3.5,-,N/A,,Clear,340,2012-10-19 17:55:00
2:15 PM,77.0,50.0,39,29.85,10.0,NNW,3.5,-,N/A,,Clear,330,2012-10-19 18:15:00
2:35 PM,78.8,50.0,36,29.84,10.0,WSW,4.6,-,N/A,,Clear,250,2012-10-19 18:35:00
3:15 PM,78.8,50.0,36,29.83,10.0,West,4.6,-,N/A,,Clear,260,2012-10-19 19:15:00
3:35 PM,78.8,48.2,34,29.83,10.0,West,6.9,-,N/A,,Clear,260,2012-10-19 19:35:00
3:55 PM,78.8,48.2,34,29.82,10.0,West,4.6,-,N/A,,Clear,270,2012-10-19 19:55:00
4:15 PM,78.8,48.2,34,29.82,10.0,West,5.8,-,N/A,,Clear,280,2012-10-19 20:15:00
4:55 PM,78.8,50.0,36,29.81,10.0,SW,4.6,-,N/A,,Clear,220,2012-10-19 20:55:00
5:15 PM,77.0,50.0,39,29.81,10.0,WSW,5.8,-,N/A,,Clear,250,2012-10-19 21:15:00
5:35 PM,77.0,50.0,39,29.81,10.0,West,3.5,-,N/A,,Clear,270,2012-10-19 21:35:00
5:55 PM,75.2,51.8,44,29.81,10.0,Calm,Calm,-,N/A,,Clear,0,2012-10-19 21:55:00
6:15 PM,73.4,53.6,50,29.81,10.0,Calm,Calm,-,N/A,,Clear,0,2012-10-19 22:15:00
6:35 PM,69.8,55.4,60,29.81,10.0,Calm,Calm,-,N/A,,Clear,0,2012-10-19 22:35:00
6:55 PM,66.2,55.4,68,29.81,10.0,Calm,Calm,-,N/A,,Clear,0,2012-10-19 22:55:00
7:15 PM,64.4,59.0,83,29.82,10.0,Calm,Calm,-,N/A,,Clear,0,2012-10-19 23:15:00
7:55 PM,59.0,59.0,100,29.83,10.0,Calm,Calm,-,N/A,,Clear,0,2012-10-19 23:55:00
8:15 PM,59.0,57.2,94,29.83,10.0,Calm,Calm,-,N/A,,Clear,0,2012-10-20 00:15:00
8:35 PM,57.2,57.2,100,29.83,10.0,Calm,Calm,-,N/A,,Clear,0,2012-10-20 00:35:00
8:55 PM,57.2,55.4,94,29.84,10.0,Calm,Calm,-,N/A,,Clear,0,2012-10-20 00:55:00
9:15 PM,55.4,55.4,100,29.84,10.0,Calm,Calm,-,N/A,,Clear,0,2012-10-20 01:15:00
9:35 PM,55.4,55.4,100,29.85,10.0,Calm,Calm,-,N/A,,Clear,0,2012-10-20 01:35:00
10:35 PM,53.6,53.6,100,29.86,10.0,Calm,Calm,-,N/A,,Clear,0,2012-10-20 02:35:00
11:55 PM,53.6,53.6,100,29.88,10.0,Calm,Calm,-,N/A,,Clear,0,2012-10-20 03:55:00